Location: Boiro
(42.6475°N, 8.8834°W)
Time: 20:53:49
(UTC+02:00)

UKube-1 - Pass Details

Date: 26 April 2024
Orbit: 584 x 591 km, 98.3° (Epoch: 20 May)

Event Time Altitude Azimuth Distance (km) Brightness Sun altitude
Rises 04:16:51 0° 4° (N) 2,836 ? -28.9°
Reaches altitude 10° 04:19:10 10° 354° (N) 1,928 ? -28.7°
Enters shadow 04:21:21 24° 331° (NNW) 1,225 ? -28.5°
